FENGYUN 1C DEB, 31608

Orbit data source: Space-Track

FENGYUN 1C DEB, 31608 is space debris in SSO originally from a launch on Mon, 10 May 1999 UTC launched from the Taiyaun Space Center, China (TSC). Fengyun 1C debris stems from the Chinese weather satellite Fengyun-1C, which was intentionally destroyed by a Chinese anti-satellite missile in 2007. This event dramatically increased the amount of space debris, with thousands of trackable fragments posing hazards to satellites and human spaceflight. The Fengyun 1C debris cloud has become a focal point in discussions about space sustainability and the need for international regulations to prevent the creation of new debris.

Loading next visibility...
Identifier
31608, 1999-025BZN
Orbit
SSO
Country
Flag of CNCN / PRC
Related business
Manufacturer
Unknown
Mission
Spacecraft
Bus & Motor
Unknown
Mass
Unknown
Launch date (UTC)
1999-05-10 (27 years ago)
Launch vehicle
Unknown
Launch site
Taiyaun Space Center, China (TSC)
Object type
Payload
Rocket body
Debris
Shape & HBR
Unknown shape, 0.1 m
Radar Cross Section
Small (<0.1 m²)

Expand to show TLE details & history
Last TLE update: 2 days ago

TLE from 2 days ago
0 FENGYUN 1C DEB
1 31608U 99025BZN 26253.16340342  .00005393  00000-0  47725-3 0  9992
2 31608  98.4094  32.2316 0134648 236.3132 122.5187 14.90014802 26516
Epoch: 2026-09-10T03:55Z
TLE epoch observation values (Epoch: 2026-09-10T03:55:18.055Z)
Latitude
0.00005°
Longitude
-15.79869°
Altitude
652.304 km
Speed
7.504 km/s
True Right ascension
02h 08m 55s
True Declination
0° 00' 00"
Sunlit
Object was in full shadow at epoch
Visualization orbit readout
Latitude
Unknown
Longitude
Unknown
Altitude
Unknown
Speed
Unknown
Apparent Right ascension
Unknown
Apparent Declination
Unknown
Sunlit
N/A
Visualization observer readout
Local Sidereal Time
01:31:39
Azimuth
Unknown
Elevation
Unknown
Doppler factor
Unknown
Orbital elements
Apogee altitude
688.831 km
Perigee altitude
501.049 km
Semi-major axis
6,973.077 km
Eccentricity
0.01346
Inclination
98.4094°
RAAN
32.2316°
Arg. of periapsis
236.3132°
True anomaly
123.80796°
Mean anomaly
122.5187°
Eccentric anomaly
123.16451°
Mean motion
3.7274 °/min
Orbital period
96.58 mins
BSTAR
0.00047725
Loading maneuver chart data...
Computing Atmospheric mass density...

Documentation

Showing up to 5 results
|